Weather Roundup
Issued by NWS

Home | Current Version | Previous Version | Graphics & Text | Print | Product List | Glossary Off
Versions: 1 2 3 4 5 6 7 8 9 10 11 12 13 14 15 16 17 18 19 20 21 22 23 24 25 26 27 28 29 30 31 32 33 34 35 36 37 38 39 40 41 42 43 44 45 46 47 48 49 50

000
NZUS93 KARX 221959
HRRWXR

CURRENT HOURLY OBSERVATIONS ACROSS
MUCH OF THE UPPER MISSISSIPPI VALLEY
NATIONAL WEATHER SERVICE LA CROSSE WI
300 PM CDT MON MAY 22 2017


...SOUTHEAST MINNESOTA...


CITY           SKY/WX    TMP DP  RH WIND       PRES   REMARKS
ROCHESTER      MOSUNNY   66  48  52 W9        29.84F
ROCHESTER/MAYO MOCLDY    65  43  45 NW15      29.84S
WINONA         MOSUNNY   68  46  45 NW9       29.82F
AUSTIN         SUNNY     66  45  45 NW8       29.83F
ALBERT LEA     SUNNY     66  43  42 CALM      29.84S
DODGE CENTER   MOSUNNY   64  45  48 W9        29.84F
PRESTON        MOSUNNY   64  48  55 W7        29.85S
OWATONNA       SUNNY     64  46  52 NW8       29.84F
FARIBAULT      MOSUNNY   66  48  52 NW6       29.84F
$$

...ELSEWHERE IN MINNESOTA...


CITY           SKY/WX    TMP DP  RH WIND       PRES   REMARKS
MINNEAPOLIS    MOSUNNY   65  43  44 NW14      29.82F
INTNL FALLS    LGT RAIN  49  44  83 NW7       29.77R
DULUTH         CLOUDY    51  46  83 W10       29.78R
RED WING       SUNNY     66  39  37 SW9G17    29.81F
REDWOOD FALLS  MOSUNNY   64  45  49 N9        29.84F
MANKATO        PTSUNNY   64  47  53 N7        29.85S
WORTHINGTON    PTSUNNY   66  46  48 NW8       29.84F
FAIRMONT       SUNNY     66  44  45 N7        29.85S
$$

...SOUTHWEST WISCONSIN...


CITY           SKY/WX    TMP DP  RH WIND       PRES   REMARKS
LA CROSSE      MOSUNNY   73  47  39 W9        29.81F
PRAIRIE DU CHI MOSUNNY   67  51  56 SW8       29.86F
BOSCOBEL       PTSUNNY   68  53  58 VRB6      29.87F
LONE ROCK      NOT AVBL
PLATTEVILLE    MOSUNNY   65  55  69 S13       29.89F
FORT MC COY    SUNNY     67  45  45 W7G20     29.83F
MAUSTON-NEW LI CLEAR     67  48  49 SW10G17   29.83S
VIROQUA        FAIR      65  48  53 N13       29.86F
WIS DELLS      PTSUNNY   64  49  58 SW15      29.87S
$$

...ELSEWHERE IN WISCONSIN...


CITY           SKY/WX    TMP DP  RH WIND       PRES   REMARKS
MILWAUKEE      CLOUDY    65  48  54 SW15G22   29.91F
MADISON        LGT RAIN  58  50  75 S6        29.89F
GREEN BAY      MOSUNNY   67  48  50 SW12G21   29.81F
EAU CLAIRE     NOT AVBL
BLACK RVR FLS  FAIR      69  42  36 W13G20    29.82S
MEDFORD        CLOUDY    58  42  54 W14G26    29.81S
WAUSAU         CLOUDY    62  42  47 W18G28    29.79F
WIS RAPIDS     PTSUNNY   70  45  40 W14G24    29.82S
MARSHFIELD     MOSUNNY   64  43  46 W12       29.80S
RICE LAKE      CLOUDY    58  43  56 W13       29.84S
$$

...NORTHEAST IOWA...


CITY           SKY/WX    TMP DP  RH WIND       PRES   REMARKS
WATERLOO       CLOUDY    71  51  49 W10G20    29.84F
DUBUQUE        CLOUDY    65  55  70 S9        29.87F
DECORAH        MOSUNNY   64  52  63 SW8G17    29.84F
MASON CITY     MOSUNNY   67  50  54 CALM      29.85F
CHARLES CITY   MOSUNNY   68  54  60 SW8       29.85F
OELWEIN        CLOUDY    66  54  63 SW3       29.85F
$$

...ELSEWHERE IN IOWA...


CITY           SKY/WX    TMP DP  RH WIND       PRES   REMARKS
DES MOINES     CLOUDY    70  53  54 SW20      29.87F
IOWA CITY      PTSUNNY   71  55  56 SW21G33   29.91S
FORT DODGE     CLOUDY    72  52  49 W13       29.85S
MARSHALLTOWN   PTSUNNY   69  54  58 SW17G24   29.85F
CEDAR RAPIDS   PTSUNNY   69  57  65 SW17      29.86F
$$

...NORTHERN ILLINOIS...


CITY           SKY/WX    TMP DP  RH WIND       PRES   REMARKS
CHICAGO-OHARE  MOSUNNY   72  45  37 W14G24    29.93F
CHICAGO-MIDWAY MOSUNNY   74  46  36 SW17      29.93F
MOLINE         PTSUNNY   70  55  59 SW21G30   29.91F
ROCKFORD       CLOUDY    68  49  50 SW8       29.91F
PEORIA         CLOUDY    71  49  45 SW16      29.96F
$$

NOTE: "FAIR" INDICATES FEW OR NO CLOUDS BELOW 12,000 FEET WITH NO
SIGNIFICANT WEATHER AND/OR OBSTRUCTIONS TO VISIBILITY. WIND
SPEEDS ARE IN MILES-PER-HOUR.




USA.gov is the U.S. government's official web portal to all federal, state and local government web resources and services.